Weather History for Dickinson, ND

Change the Weather History Date:

Thursday, August 29, 2013

  Actual Average Record
Temperature  
Mean Temperature 75 °F 65 °F  
Max Temperature 89 °F 80 °F 105 °F (2012)
Min Temperature 61 °F 50 °F 32 °F (1946)
Degree Days  
Heating Degree Days 0 3  
Month to date heating degree days 8 45  
Since 1 June heating degree days 164 216  
Since 1 July heating degree days 40 79  
Cooling Degree Days 10 3  
Month to date cooling degree days 153 147  
Year to date cooling degree days 296 376  
Since 1 June cooling degree days 287 366  
Growing Degree Days 26 (Base 50)    
Moisture  
Dew Point 62 °F    
Average Humidity 65    
Maximum Humidity 93    
Minimum Humidity 37    
Precipitation  
Precipitation T in 0.05 in 1.19 in (1964)
Month to date precipitation 1.67 1.44  
Year to date precipitation 13.17 12.19  
Sea Level Pressure  
Sea Level Pressure 29.92 in    
Wind  
Wind Speed 8 mph (North)    
Max Wind Speed 18 mph    
Max Gust Speed 30 mph    
Visibility 10 miles    
Events Thunderstorm    
T = Trace of Precipitation, MM = Missing Value Source: NWS Daily Summary

Daily Weather History Graph

Daily Weather History Graph

Search for Another Location

Airport:

Trip Planner

Search our weather history database for the weather conditions in past years. The results will help you decide how hot, cold, wet, or windy it might be!

Date:

Astronomy

Aug. 29, 2013 Rise Set
Actual Time 6:07 AM MDT 7:35 PM MDT
Civil Twilight 5:35 AM MDT 8:07 PM MDT
Nautical Twilight 4:57 AM MDT 8:45 PM MDT
Astronomical Twilight 4:15 AM MDT 9:26 PM MDT
Moon No Moon Rise 3:17 PM MDT (8/29)
Length of Visible Light 14h 31m
Length of Day
13h 28m
Last Quarter, 37% of the Moon is Illuminated
Aug 29
Last Quarter
Sep 5
New
Sep 12
First Quarter
Sep 19
Full
Sep 26
Last Quarter

Hourly Weather History & Observations

Time (MDT) Temp. Heat Index Dew Point Humidity Pressure Visibility Wind Dir Wind Speed Gust Speed Precip Events Conditions
12:56 AM 73.9 °F - 64.0 °F 71% 29.84 in 10.0 mi SSW 5.8 mph - N/A   Clear
1:19 AM 71.6 °F - 60.8 °F 69% 29.96 in 9.0 mi NNW 18.4 mph 29.9 mph N/A   Mostly Cloudy
1:40 AM 68.0 °F - 60.8 °F 78% 29.97 in 10.0 mi NNW 9.2 mph - 0.00 in Thunderstorm Overcast
1:50 AM 69.8 °F - 62.6 °F 78% 29.95 in 10.0 mi North 4.6 mph - 0.00 in Thunderstorm Overcast
1:56 AM 69.1 °F - 63.0 °F 81% 29.87 in 10.0 mi NNE 5.8 mph - 0.00 in Thunderstorm Overcast
2:11 AM 68.0 °F - 64.4 °F 88% 29.90 in 10.0 mi East 9.2 mph - N/A   Mostly Cloudy
2:56 AM 68.0 °F - 63.0 °F 84% 29.82 in 10.0 mi SE 9.2 mph - N/A   Partly Cloudy
3:56 AM 64.9 °F - 61.0 °F 87% 29.83 in 10.0 mi NNE 4.6 mph - N/A   Clear
4:56 AM 64.0 °F - 62.1 °F 93% 29.86 in 10.0 mi North 8.1 mph - N/A   Clear
5:56 AM 62.1 °F - 60.1 °F 93% 29.88 in 10.0 mi WNW 6.9 mph - N/A   Clear
6:56 AM 64.0 °F - 61.0 °F 90% 29.90 in 10.0 mi West 4.6 mph - N/A   Clear
7:56 AM 69.1 °F - 62.1 °F 78% 29.91 in 10.0 mi WNW 10.4 mph - N/A   Clear
8:56 AM 73.9 °F - 63.0 °F 68% 29.91 in 10.0 mi West 6.9 mph - N/A   Clear
9:56 AM 78.1 °F - 63.0 °F 60% 29.93 in 10.0 mi NW 10.4 mph - N/A   Clear
10:56 AM 81.0 °F 82.2 °F 63.0 °F 54% 29.94 in 10.0 mi NW 11.5 mph - N/A   Clear
11:56 AM 82.9 °F 84.4 °F 64.0 °F 53% 29.94 in 10.0 mi NNW 11.5 mph 19.6 mph N/A   Clear
12:56 PM 86.0 °F 86.1 °F 61.0 °F 43% 29.93 in 10.0 mi NNW 12.7 mph 20.7 mph N/A   Clear
1:56 PM 87.1 °F 86.7 °F 60.1 °F 40% 29.94 in 10.0 mi NW 11.5 mph - N/A   Clear
2:56 PM 89.1 °F 88.2 °F 59.0 °F 36% 29.93 in 10.0 mi North 10.4 mph 16.1 mph N/A   Clear
3:56 PM 88.0 °F 87.6 °F 60.1 °F 39% 29.94 in 10.0 mi NNW 9.2 mph - N/A   Clear
4:56 PM 87.1 °F 86.7 °F 60.1 °F 40% 29.94 in 10.0 mi North 9.2 mph - N/A   Clear
5:56 PM 86.0 °F 85.7 °F 60.1 °F 41% 29.95 in 10.0 mi NNE 6.9 mph - N/A   Clear
6:56 PM 81.0 °F 81.7 °F 61.0 °F 50% 29.96 in 10.0 mi NNE 3.5 mph - N/A   Clear
7:56 PM 75.9 °F - 61.0 °F 60% 29.97 in 10.0 mi NE 3.5 mph - N/A   Clear
8:56 PM 69.1 °F - 61.0 °F 75% 29.98 in 10.0 mi East 5.8 mph - N/A   Clear
9:56 PM 68.0 °F - 61.0 °F 78% 29.98 in 10.0 mi ESE 5.8 mph - N/A   Clear
10:56 PM 66.9 °F - 60.1 °F 79% 29.98 in 10.0 mi SE 3.5 mph - N/A   Clear
11:56 PM 64.9 °F - 60.1 °F 84% 29.99 in 10.0 mi South 4.6 mph - N/A   Clear